Regional Weather Roundup
Issued by NWS Cleveland, OH

Home | Current Version | Previous Version | Text Only | Print | Product List | Glossary Off
Versions: 1 2 3 4 5 6 7 8 9 10 11 12 13 14 15 16 17 18 19 20 21 22 23 24 25 26 27 28 29 30 31 32 33 34 35 36 37 38 39 40 41 42 43 44 45 46 47 48 49 50

888
ASUS41 KCLE 120110
RWRCLE
OHIO REGIONAL WEATHER ROUNDUP
NATIONAL WEATHER SERVICE WILMINGTON, OH
800 PM EST THU FEB 11 2016

NOTE: "FAIR" INDICATES FEW OR NO CLOUDS BELOW 12,000 FEET WITH NO
SIGNIFICANT WEATHER AND/OR OBSTRUCTIONS TO VISIBILITY.

OHZ001>008-015>018-024>027-034-035-043-044-120200-
   NORTHWEST OHIO

CITY           SKY/WX    TMP DP  RH WIND       PRES   REMARKS
DEFIANCE       MOCLDY    19  10  68 CALM      30.28S
FINDLAY        MOCLDY    16   7  67 CALM      30.27S
TOLEDO EXPRESS FAIR      16   4  59 SW5       30.27R WCI   9
TOLEDO EXEC    FAIR      16   4  59 SW6       30.29R WCI   7
LIMA           CLOUDY    18  10  71 SW6       30.27R WCI  10
$$

OHZ009>014-019>023-028>033-038-089-120200-
   NORTHEAST OHIO

CITY           SKY/WX    TMP DP  RH WIND       PRES   REMARKS
CLE-HOPKINS    MOCLDY    16   8  71 S6        30.29S WCI   7
CLE-LAKEFRONT  FLURRIES  19  10  68 S9        30.27R WCI   8
CUY CO. ARPT   MOCLDY    19   5  53 NW12      30.25S WCI   7
LORAIN-ELYRIA  MOCLDY    13   2  61 W9        30.26S WCI   1
ASHTABULA      MOCLDY    15   1  53 NW6       30.24S WCI   6
AKRON-CANTON   FAIR      12   1  61 W5        30.24S WCI   4
WOOSTER        FAIR       5  -1  76 W3        30.26S
MANSFIELD      FAIR      13   1  59 SW3       30.24S
YOUNGSTOWN     FAIR       9   2  73 SW7       30.23R WCI  -2
$$

OHZ042-051>053-060>062-070>072-077>081-120200-
  SOUTHWEST OHIO

CITY           SKY/WX    TMP DP  RH WIND       PRES   REMARKS
CINC-COVINGTON FAIR      20   7  57 N7        30.30R WCI  11
CINC-LUNKEN    FAIR      20  10  65 CALM      30.35R
HAMILTON       FAIR      15   9  76 CALM      30.33S
DAYTON         FAIR      18   8  65 CALM      30.30R
WRIGHT-PAT AFB PTCLDY    19   6  57 CALM      30.30R
DAYTON GENERAL CLOUDY    20   5  52 CALM      30.29R
WILMINGTON     FAIR      15   5  64 CALM      30.29R
$$

OHZ036-037-039>041-045>050-054>059-063>069-073>076-082>088-120200-
  CENTRAL AND SOUTHEAST OHIO

CITY           SKY/WX    TMP DP  RH WIND       PRES   REMARKS
COLUMBUS       MOCLDY    17   6  62 SW3       30.30R
OSU AIRPORT    MOCLDY    16   8  71 W3        30.29R
BOLTON FIELD   FAIR      13   7  77 CALM      30.31R
RICKENBACK AFB MOCLDY    15   7  70 CALM      30.31S
NEWARK         CLOUDY    13   6  74 CALM      30.29R
MARION         MOCLDY    18   7  62 NW3       30.28R
LANCASTER      FAIR      13   5  70 CALM      30.31R
ZANESVILLE     FAIR      18   8  65 SW3       30.29R
NEW PHILLY     FAIR      14   1  56 CALM      30.29R
$$




USA.gov is the U.S. government's official web portal to all federal, state and local government web resources and services.